Total_Precipitation_Accumulation
0.00 0.01 0.02 0.02 0.02 0.03 0.05 0.07 0.11 0.15 0.14 0.17 0.33 0.51 0.53 0.69 0.95 1.22 1.52 1.78 2.07 2.33 2.76 3.21 3.29 3.50 3.79 4.32 4.62 4.67 4.81 4.70 4.45 4.06 3.63 3.43 3.33 3.26 3.06 2.81 2.57 2.47 2.41 2.46
0.01 0.03 0.01 0.01 0.02 0.03 0.06 0.09 0.13 0.15 0.14 0.15 0.30 0.49 0.59 0.92 1.19 1.24 1.36 1.49 1.68 2.12 2.53 2.85 3.00 3.05 3.39 3.95 4.32 4.42 4.20 4.06 3.94 3.69 3.53 3.48 3.63 3.33 3.01 2.80 2.55 2.37 2.33 2.38
0.03 0.03 0.02 0.02 0.02 0.03 0.05 0.06 0.11 0.16 0.15 0.20 0.31 0.60 0.79 1.03 1.15 1.19 1.26 1.37 1.51 1.87 2.20 2.50 2.56 2.64 2.85 2.97 3.19 3.35 3.48 3.34 3.20 3.14 3.13 3.20 3.36 3.08 2.76 2.57 2.43 2.21 2.08 2.03
0.03 0.03 0.03 0.04 0.04 0.04 0.06 0.07 0.06 0.08 0.15 0.27 0.41 0.92 1.14 1.06 1.11 1.25 1.28 1.30 1.52 1.84 1.82 1.91 2.08 2.23 2.48 2.59 2.72 2.77 2.79 2.87 2.82 2.80 2.71 2.58 2.49 2.35 2.21 2.20 2.15 2.12 2.01 1.90
0.05 0.04 0.03 0.05 0.05 0.04 0.05 0.05 0.06 0.09 0.18 0.29 0.40 0.71 1.09 1.40 1.45 1.24 1.18 1.14 1.34 1.50 1.42 1.40 1.56 1.67 1.83 1.96 2.17 2.30 2.38 2.46 2.50 2.48 2.37 2.34 2.17 2.12 2.11 2.06 2.00 1.91 1.84 1.81
0.05 0.05 0.04 0.04 0.04 0.04 0.04 0.06 0.12 0.23 0.41 0.64 0.54 0.66 1.05 1.39 1.63 1.32 1.15 1.09 1.19 1.16 1.15 1.26 1.35 1.39 1.50 1.69 1.84 1.98 2.08 2.10 2.17 2.20 2.17 2.12 2.05 2.02 1.97 1.88 1.82 1.78 1.76 1.66
0.12 0.12 0.10 0.06 0.05 0.06 0.06 0.13 0.45 0.81 1.10 1.12 0.72 0.75 1.11 1.12 1.13 1.13 1.09 1.12 1.11 1.03 0.97 0.97 1.04 1.15 1.29 1.46 1.54 1.60 1.71 1.77 1.74 1.76 1.77 1.73 1.78 1.81 1.69 1.60 1.57 1.51 1.39 1.30
0.17 0.24 0.15 0.09 0.09 0.09 0.10 0.15 0.50 0.76 0.82 0.92 0.80 1.07 1.40 1.10 1.00 0.94 1.00 1.07 1.03 0.89 0.81 0.81 0.91 0.94 1.00 1.12 1.25 1.32 1.43 1.48 1.53 1.55 1.53 1.49 1.47 1.46 1.34 1.40 1.36 1.28 1.10 1.02
0.10 0.11 0.08 0.08 0.09 0.11 0.15 0.17 0.23 0.43 0.48 0.69 0.89 1.17 1.33 1.01 0.97 1.05 1.15 1.12 1.04 0.82 0.67 0.64 0.70 0.76 0.74 0.77 0.88 1.00 1.22 1.31 1.34 1.37 1.33 1.25 1.24 1.25 1.19 1.24 1.32 1.24 1.18 1.07
0.06 0.05 0.06 0.07 0.09 0.12 0.15 0.15 0.19 0.36 0.52 0.72 0.85 1.20 1.47 1.32 1.25 1.24 1.27 1.08 0.79 0.62 0.51 0.48 0.50 0.51 0.54 0.59 0.69 0.80 0.94 1.03 1.08 1.17 1.17 1.00 1.10 1.18 1.15 1.13 1.13 1.16 1.16 1.12
0.05 0.04 0.06 0.09 0.12 0.14 0.19 0.21 0.28 0.39 0.42 0.64 0.98 1.17 1.10 1.09 1.11 1.17 1.13 0.91 0.65 0.53 0.43 0.42 0.44 0.46 0.49 0.52 0.63 0.75 0.89 0.98 1.01 1.07 1.12 1.05 1.04 1.08 1.08 1.05 1.03 1.07 1.07 1.08
0.07 0.06 0.10 0.16 0.18 0.17 0.17 0.19 0.28 0.42 0.40 0.45 0.69 0.88 0.61 0.63 0.70 0.78 0.79 0.65 0.53 0.51 0.46 0.50 0.50 0.51 0.51 0.58 0.65 0.72 0.83 0.93 0.97 1.07 1.17 1.20 1.14 1.09 1.07 1.03 0.95 0.92 0.89 0.91
0.11 0.11 0.17 0.37 0.48 0.30 0.19 0.17 0.19 0.24 0.27 0.29 0.51 0.68 0.46 0.52 0.62 0.74 0.80 0.79 0.73 0.64 0.50 0.48 0.53 0.55 0.54 0.63 0.72 0.80 0.91 0.94 0.97 1.09 1.22 1.29 1.17 1.08 1.09 1.03 0.92 0.85 0.80 0.81
0.11 0.14 0.19 0.40 0.52 0.40 0.30 0.23 0.19 0.22 0.31 0.28 0.31 0.46 0.47 0.53 0.61 0.69 0.74 0.77 0.69 0.59 0.48 0.45 0.50 0.54 0.59 0.65 0.68 0.69 0.68 0.74 0.84 0.87 1.00 1.15 1.15 1.03 0.93 0.88 0.87 0.87 0.85 0.82
0.09 0.12 0.12 0.16 0.23 0.29 0.32 0.26 0.21 0.17 0.21 0.34 0.32 0.36 0.45 0.54 0.54 0.63 0.67 0.60 0.59 0.51 0.50 0.49 0.51 0.54 0.58 0.58 0.54 0.51 0.47 0.49 0.56 0.67 0.76 0.87 0.85 0.84 0.82 0.76 0.70 0.72 0.79 0.77
0.16 0.17 0.16 0.15 0.17 0.22 0.25 0.25 0.18 0.13 0.12 0.15 0.27 0.44 0.47 0.49 0.53 0.55 0.55 0.57 0.57 0.61 0.65 0.64 0.61 0.62 0.55 0.52 0.45 0.43 0.42 0.46 0.54 0.64 0.68 0.77 0.78 0.72 0.67 0.66 0.62 0.62 0.69 0.77
0.34 0.29 0.27 0.24 0.20 0.26 0.30 0.25 0.19 0.14 0.12 0.14 0.30 0.55 0.51 0.50 0.54 0.59 0.64 0.69 0.58 0.55 0.57 0.60 0.56 0.54 0.44 0.42 0.42 0.42 0.46 0.48 0.51 0.59 0.67 0.74 0.80 0.78 0.66 0.59 0.66 0.67 0.74 0.80
0.43 0.46 0.39 0.34 0.40 0.55 0.37 0.23 0.20 0.21 0.20 0.20 0.25 0.34 0.41 0.51 0.53 0.48 0.52 0.63 0.62 0.57 0.60 0.58 0.53 0.52 0.48 0.44 0.43 0.41 0.40 0.42 0.47 0.54 0.61 0.66 0.73 0.74 0.74 0.73 0.76 0.82 0.88 0.92
0.33 0.48 0.49 0.46 0.55 0.48 0.40 0.33 0.31 0.35 0.35 0.32 0.40 0.37 0.41 0.47 0.49 0.50 0.41 0.44 0.44 0.54 0.55 0.56 0.56 0.60 0.59 0.53 0.56 0.57 0.53 0.55 0.60 0.64 0.71 0.70 0.73 0.80 0.85 0.86 0.88 0.95 1.00 1.00
0.40 0.52 0.63 0.59 0.73 0.74 0.62 0.50 0.44 0.46 0.73 0.55 0.54 0.55 0.57 0.57 0.67 0.74 0.51 0.37 0.39 0.48 0.52 0.55 0.48 0.41 0.49 0.54 0.63 0.71 0.76 0.77 0.83 0.90 0.95 0.96 1.01 1.05 1.02 1.12 1.21 1.23 1.24 1.15
0.83 0.84 0.76 0.76 0.88 0.90 0.70 0.59 0.52 0.87 1.03 0.64 0.61 0.67 0.66 0.69 0.76 0.72 0.59 0.46 0.50 0.43 0.45 0.47 0.48 0.42 0.46 0.54 0.67 0.83 0.94 0.93 1.00 1.06 1.15 1.25 1.33 1.45 1.52 1.64 1.60 1.53 1.51 1.48
0.95 1.07 1.07 1.08 1.21 1.12 0.72 0.68 0.92 1.09 0.87 0.87 0.75 0.68 0.65 0.61 0.68 0.70 0.65 0.55 0.45 0.45 0.45 0.48 0.54 0.48 0.50 0.58 0.70 0.82 0.95 1.08 1.22 1.29 1.42 1.51 1.63 1.66 1.74 2.06 2.12 2.14 2.06 1.82
1.05 1.12 1.13 1.15 1.20 0.95 0.80 0.94 0.99 0.97 0.98 1.02 0.96 0.76 0.68 0.60 0.60 0.64 0.57 0.45 0.35 0.35 0.40 0.44 0.55 0.59 0.59 0.69 0.89 1.08 1.09 1.19 1.36 1.48 1.63 1.73 1.80 1.89 1.99 2.12 2.18 2.22 2.19 1.96
1.11 0.95 1.07 1.16 1.21 1.04 0.91 0.87 0.95 0.92 0.88 0.91 0.89 0.95 0.94 0.78 0.66 0.67 0.59 0.47 0.38 0.36 0.39 0.42 0.53 0.66 0.83 0.93 1.08 1.28 1.26 1.34 1.49 1.58 1.66 1.74 1.83 1.91 2.02 2.13 2.08 2.04 2.01 1.96
1.02 1.07 1.22 1.33 1.27 1.15 1.04 1.00 1.14 1.11 0.98 1.01 0.97 0.99 1.05 0.85 0.67 0.58 0.54 0.52 0.49 0.50 0.53 0.53 0.61 0.77 0.99 1.15 1.26 1.33 1.36 1.50 1.64 1.67 1.74 1.82 1.84 1.86 1.96 2.00 2.05 1.96 1.88 1.82
0.97 1.12 1.29 1.37 1.27 1.37 1.26 1.06 1.14 1.21 1.07 1.13 1.11 1.02 0.85 0.76 0.70 0.62 0.58 0.56 0.56 0.58 0.59 0.63 0.71 0.82 0.99 1.16 1.34 1.45 1.55 1.65 1.76 1.81 1.76 1.82 1.89 1.94 1.98 1.95 1.81 1.68 1.59 1.47